Jordan, MT

11:37 PM MDT on August 23, 2016 (GMT -0600)
Jordan

Weather History for KJDN - December, 2012

Change the Weather History Date:

Monday, December 3, 2012

  Actual Average Record
Temperature  
Mean Temperature 40 °F 22 °F  
Max Temperature 53 °F 35 °F 62 °F (1943)
Min Temperature 27 °F 9 °F -22 °F (1905)
Degree Days  
Heating Degree Days 25 43  
Month to date heating degree days 72 127  
Since 1 July heating degree days 1842 2145  
Cooling Degree Days 0 0  
Month to date cooling degree days 0 0  
Year to date cooling degree days 728 421  
Moisture  
Dew Point 22 °F    
Average Humidity 48    
Maximum Humidity 69    
Minimum Humidity 26    
Precipitation  
Precipitation 0.00 in 0.01 in 0.42 in (2013)
Month to date precipitation 0.00 0.03  
Year to date precipitation 7.69 12.41  
Snow  
Snow 0.00 in - - ()
Month to date snowfall 0.0  
Since 1 July snowfall 0.0  
Snow Depth 0.00 in    
Sea Level Pressure  
Sea Level Pressure 29.86 in    
Wind  
Wind Speed 14 mph (West)    
Max Wind Speed 31 mph    
Max Gust Speed 39 mph    
T = Trace of Precipitation, MM = Missing Value Source: NWS Daily Summary

Daily Weather History Graph

Daily Weather History Graph

Search for Another Location

Airport or City:

Trip Planner

Search our weather history database for the weather conditions in past years. The results will help you decide how hot, cold, wet, or windy it might be!

Date:

Astronomy

Dec. 03, 2012 Rise Set
Actual Time 7:37 AM MST 4:18 PM MST
Civil Twilight 7:01 AM MST 4:53 PM MST
Nautical Twilight 6:23 AM MST 5:32 PM MST
Astronomical Twilight 5:46 AM MST 6:09 PM MST
Moon 9:19 PM MST (12/3) 10:51 AM MST (12/3)
Length of Visible Light 9h 51m
Length of Day
8h 41m
Waning Gibbous, 77% of the Moon is Illuminated
Dec 3
Waning Gibbous
Dec 6
Last Quarter
Dec 13
New
Dec 19
First Quarter
Dec 28
Full

Hourly Weather History & Observations

Time (MST) Temp. Windchill Dew Point Humidity Pressure Visibility Wind Dir Wind Speed Gust Speed Precip Events Conditions
12:48 AM 43.0 °F 36.0 °F 24.1 °F 47% 29.61 in - West 13.8 mph - N/A   Unknown
1:48 AM 41.0 °F 32.2 °F 24.1 °F 51% 29.63 in - West 18.4 mph 24.2 mph N/A   Unknown
2:48 AM 39.0 °F 31.0 °F 21.9 °F 50% 29.68 in - West 13.8 mph - N/A   Unknown
3:48 AM 37.0 °F 28.9 °F 21.9 °F 54% 29.71 in - West 12.7 mph - N/A   Unknown
4:48 AM 37.0 °F 30.4 °F 21.9 °F 54% 29.73 in - West 9.2 mph - N/A   Unknown
5:48 AM 37.0 °F 28.1 °F 21.0 °F 52% 29.75 in - WSW 15.0 mph - N/A   Unknown
6:48 AM 37.0 °F 28.9 °F 21.9 °F 54% 29.78 in - West 12.7 mph - N/A   Unknown
7:48 AM 34.0 °F 25.0 °F 21.9 °F 61% 29.81 in - West 12.7 mph - N/A   Unknown
8:48 AM 39.9 °F 32.1 °F 23.0 °F 51% 29.82 in - WSW 13.8 mph 20.7 mph N/A   Unknown
9:48 AM 45.0 °F 38.2 °F 21.9 °F 40% 29.82 in - West 15.0 mph - N/A   Unknown
10:48 AM 48.9 °F - 21.0 °F 33% 29.84 in - West 19.6 mph 27.6 mph N/A   Unknown
11:48 AM 51.1 °F - 21.0 °F 31% 29.84 in - WSW 21.9 mph 27.6 mph N/A   Unknown
12:48 PM 52.0 °F - 19.9 °F 28% 29.83 in - WNW 28.8 mph 35.7 mph N/A   Unknown
1:48 PM 53.1 °F - 19.0 °F 26% 29.84 in - WNW 27.6 mph 38.0 mph N/A   Unknown
2:48 PM 53.1 °F - 19.9 °F 27% 29.86 in - WNW 24.2 mph 35.7 mph N/A   Unknown
3:48 PM 50.0 °F - 19.9 °F 31% 29.88 in - West 20.7 mph 32.2 mph N/A   Unknown
4:48 PM 41.0 °F 35.8 °F 21.0 °F 45% 29.94 in - NW 8.1 mph - N/A   Unknown
5:48 PM 36.0 °F 32.1 °F 21.0 °F 55% 29.98 in - WSW 4.6 mph - N/A   Unknown
6:48 PM 32.0 °F 27.5 °F 21.9 °F 66% 30.01 in - West 4.6 mph - N/A   Unknown
7:48 PM 30.0 °F 24.1 °F 21.9 °F 72% 30.04 in - WNW 5.8 mph - N/A   Unknown
8:48 PM 30.0 °F 26.5 °F 21.9 °F 72% 30.06 in - West 3.5 mph - N/A   Unknown
9:48 PM 35.1 °F 29.3 °F 24.1 °F 64% 30.06 in - West 6.9 mph - N/A   Unknown
10:48 PM 35.1 °F 28.6 °F 21.9 °F 59% 30.07 in - West 8.1 mph - N/A   Unknown
11:48 PM 28.9 °F 22.8 °F 21.0 °F 72% 30.10 in - WNW 5.8 mph - N/A   Unknown